Regional Weather Roundup
Issued by NWS Upton, NY

Current Version | Previous Version | Graphics & Text | Print | Product List | Glossary Off
Versions: 1 2 3 4 5 6 7 8 9 10 11 12 13 14 15 16 17 18 19 20 21 22 23 24 25 26 27 28 29 30 31 32 33 34 35 36 37 38 39 40 41 42 43 44 45 46 47 48 49 50

000
ASUS41 KOKX 281105
RWROKX

REGIONAL WEATHER ROUNDUP
NATIONAL WEATHER SERVICE NEW YORK NY
600 AM EST WED JAN 28 2015

NOTE: "FAIR" INDICATES FEW OR NO CLOUDS BELOW 12,000 FEET WITH NO
SIGNIFICANT WEATHER AND/OR OBSTRUCTIONS TO VISIBILITY.

NYZ071-072-176-178-NJZ106-104-281200-
NEW YORK CITY METRO AREA


CITY           SKY/WX    TMP DP  RH WIND       PRES   REMARKS
CENTRAL PARK   CLEAR     17  -2  43 NW8G17    29.97R WCI   7
LAGUARDIA APRT PTCLDY    18   3  52 NW16G24   29.95R WCI   3
KENNEDY INTL   PTCLDY    17   1  49 NW16      29.96R WCI   2
NEWARK/LIBERTY PTCLDY    16  -2  45 NW15      29.97R WCI   1
BRNX BOT. GARD   N/A    N/A N/A N/A W13       29.95F
TETERBORO      CLEAR     16  -2  45 NW10      29.96R WCI   4
$$

NYZ177-179-078>081-281200-
LONG ISLAND NEW YORK

CITY           SKY/WX    TMP DP  RH WIND       PRES   REMARKS
FARMINGDALE    CLEAR     17   2  51 NW9       29.93R WCI   6
ISLIP          PTCLDY    17   4  56 N23G32    29.88R WCI  -1
SHIRLEY        PTCLDY    17   5  59 NW16      29.91R WCI   2
WESTHAMPTON    CLOUDY    17   7  64 N14G22    29.91R WCI   3
MONTAUK POINT    N/A     18   8  65 NW17G26   29.87R WCI   3
$$

NYZ052-065-067-281200-
HUDSON VALLEY

CITY           SKY/WX    TMP DP  RH WIND       PRES   REMARKS
WHITE PLAINS   CLEAR     14   0  53 NW12      29.90R WCI   0
NEWBURGH       CLEAR     10   0  61 W7        29.93R WCI   0
MONTGOMERY     PTCLDY    17  -1  45 NW7       29.93R WCI   8
POUGHKEEPSIE   CLOUDY     7   2  80 CALM      29.96R
ALBANY         MOCLDY    11  -2  56 N12       30.01R WCI  -3
$$

NJZ001-105-106-008-010-013-015-019>022-104-281200-
NEW JERSEY

CITY           SKY/WX    TMP DP  RH WIND       PRES   REMARKS
NEWARK/LIBERTY PTCLDY    16  -2  45 NW15      29.97R WCI   1
TETERBORO      CLEAR     16  -2  45 NW10      29.96R WCI   4
CALDWELL       CLEAR     15  -6  39 NW8       29.98R WCI   4
MORRISTOWN     CLEAR     19  -4  35 NW8G17    29.97R WCI   9
SOMERVILLE     CLOUDY    17  -1  45 NW7       29.97R WCI   8
SUSSEX         PTCLDY    14  -4  44 VRB7      29.95R WCI   4
ANDOVER          N/A     13  -3  49 VRB3      29.96R
TRENTON        CLEAR     17  -1  45 NW9       29.98R WCI   6
MILLVILLE      CLEAR     20   3  48 NW10G21   30.02R WCI   9
ATLANTIC CITY  CLEAR     18   5  57 NW14      29.99R WCI   4
WRIGHTSTOWN    CLEAR     16   1  52 W12       29.97R WCI   3
TOMS RIVER     CLEAR     16   3  57 NW10G16   29.98R WCI   3
BELMAR         CLEAR     16  -2  45 NW14      29.95R WCI   1
$$

PAZ047>061-062-071-281200-
EASTERN PENNSYLVANIA

CITY           SKY/WX    TMP DP  RH WIND       PRES   REMARKS
PHILADELPHIA   PTCLDY    20  -1  40 NW13G23   30.04R WCI   7
ALLENTOWN      CLEAR     17  -4  39 NW13G20   30.02R WCI   4
SCRANTON       CLEAR     10  -1  61 W7        30.03R WCI  -1
$$

CTZ002-004>006-009-010-012-RIZ004-006-007-MAZ004-011-015-281200-
SOUTHERN NEW ENGLAND
 IN CT

CITY           SKY/WX    TMP DP  RH WIND       PRES   REMARKS
BRADLEY INTL   PTCLDY    13   1  59 NW8       29.90R WCI   2
HARTFORD       FLURRIES  14   2  58 NW8       29.92R WCI   3
DANBURY        CLEAR     13  -2  51 NW13G22   29.92R WCI  -2
WTRBRY/OXFORD  MOCLDY    12  -2  52 N8        29.86R WCI   1
BRIDGEPORT     CLOUDY    15   3  59 NW12G20   29.93R WCI   2
MERIDEN        CLEAR     13   2  61 NW6       29.91R WCI   4
NEW HAVEN      CLEAR     16   4  59 N15G22    29.90R WCI   1
CHESTER        FAIR      14   5  67 NW13G20   29.86R WCI   0
GROTON         PTCLDY    13   2  61 NW12      29.87R WCI  -1
WILLIMANTIC    CLOUDY    14   0  53 NW14G21   29.88R WCI  -1

 IN RI

CITY           SKY/WX    TMP DP  RH WIND       PRES   REMARKS
PROVIDENCE     CLOUDY    13   2  61 NW8       29.84R WCI   2
BLOCK ISLAND   CLEAR     16   3  57 NW18G25   29.81R WCI  -1
WESTERLY       CLEAR     13   2  61 NW13      29.86R WCI  -2

 IN MA

CITY           SKY/WX    TMP DP  RH WIND       PRES   REMARKS
BOSTON         MOCLDY    13   4  67 W14G22    29.82R WCI  -2
WORCESTER      CLOUDY     8   0  69 NW22G28   29.76R WCI -12
WESTFIELD      MOCLDY    12   0  58 NW13      29.89R WCI  -3
PROVINCETOWN   CLOUDY    21  18  86 NW24G30   29.75R WCI   4
NANTUCKET      CLOUDY    19  13  77 NW16G24   29.77R WCI   4
$$

ANZ330-335-338-340-345-350-353-355-281200-
COASTAL MARINE OBSERVATIONS


STATION/POSITION TIME  SKY/WX   TEMP    WIND        PRES    VSBY  WAVE
                                AIR SEA DIR/SP/G                  HT/PER
                 (UTC)          (F)     (DEG/KT/KT) (MB)    (MI)  (FT/S)
NY HARB ENTRANCE 1100            21 40  310/ 21/ 25 1013.2          4/13
4S FIRE IS       1000               38                N/A           4/14
20S FIRE ISLAND  1000               43              1012.3          6/ 5
23SW MTP         1100                                 N/A           6/ 5
HUDSON CANYON    NOT AVBL
EXECUTION ROCKS  1100            18 34  310/ 12/ 17   N/A
WESTERN LI SOUND 1100            19     330/ 12/ 16   N/A           1/ 2
CENTRAL LI SOUND 1000            19 35  320/ 21/ 27   N/A           3/ 4
EASTERN LI SOUND NOT AVBL
ROBBINS REEF     1000            17     320/ 19/ 23 1013.0
$$


>>>>>>>>>>>>>>>>>>>>>>>>>>>> KEY <<<<<<<<<<<<<<<<<<<<<<<<<<<
>                                                          <
>     SKY/WX - SKY CONDITION/PRESENT WEATHER               <
>     TMP    - TEMPERATURE IN FAHRENHEIT                   <
>     DP     - DEWPOINT IN FAHRENHEIT                      <
>     RH     - RELATIVE HUMIDITY IN PERCENT                <
>     WIND   - DIRECTION AND SPEED IN MPH                  <
>     PRES   - MEAN SEA LEVEL PRESSURE IN INCHES OF HG     <
>     WCI    - WIND CHILL INDEX                            <
>     VSB    - VISIBILITY IN MILES                         <
>     HX     - HEAT INDEX                                  <
>     TC     - TEMPERATURE IN CELSIUS                      <
>     VRB    - VARIABLE WIND DIRECTION                     <
>                                                          <
>>>>>>>>>>>>>>>>>>>>>>>>>>>> KEY <<<<<<<<<<<<<<<<<<<<<<<<<<<





USA.gov is the U.S. government's official web portal to all federal, state and local government web resources and services.